Regional Weather Roundup
Issued by NWS

Home | Current Version | Previous Version | Text Only | Print | Product List | Glossary Off
Versions: 1 2 3 4 5 6 7 8 9 10 11 12 13 14 15 16 17 18 19 20 21 22 23 24 25 26 27 28 29 30 31 32 33 34 35 36 37 38 39 40 41 42 43 44 45 46 47 48 49 50

617
ASUS45 KPSR 250010
RWRAZ

ARIZONA HOURLY REGIONAL WEATHER ROUNDUP
NATIONAL WEATHER SERVICE PHOENIX AZ
500 PM MST SAT JUN 24 2017

NOTE: FAIR INDICATES FEW OR NO CLOUDS BELOW 12,000 FEET WITH NO
SIGNIFICANT WEATHER AND/OR OBSTRUCTIONS TO VISIBILITY.

AZZ001>003-036-250100-
NORTHWEST ARIZONA

CITY           SKY/WX    TMP DP  RH WIND       PRES   REMARKS
BULLHEAD CITY  SUNNY    118  27   4 CALM      29.61  HX 108
KINGMAN        MOSUNNY  110  34   7 NW12G18   29.87F HX 103
6HR MIN TEMP: 102; 6HR MAX TEMP: 112;

$$

AZZ004>008-015-016-018-250100-
NORTH CENTRAL ARIZONA

CITY           SKY/WX    TMP DP  RH WIND       PRES   REMARKS
GRAND CANYON   MOSUNNY   93  21   7 N7G15     30.20F
6HR MIN TEMP:  88; 6HR MAX TEMP:  95;

PRESCOTT       PTSUNNY   96  32  10 W12       30.04F
6HR MIN TEMP:  96; 6HR MAX TEMP: 101;

FLAGSTAFF      PTSUNNY   89  22   8 W12G22    30.22F
6HR MIN TEMP:  86; 6HR MAX TEMP:  90;

PAYSON         MOSUNNY   93  37  14 E12       30.08S
PAGE           SUNNY    103  20   5 NE7       29.95F
6HR MIN TEMP:  93; 6HR MAX TEMP: 104;

$$

AZZ009>014-017-250100-
NORTHEAST ARIZONA

CITY           SKY/WX    TMP DP  RH WIND       PRES   REMARKS
WINSLOW        MOSUNNY  101  25   7 N10       30.01F
6HR MIN TEMP:  92; 6HR MAX TEMP: 104;

SAINT JOHNS    MOSUNNY   99  25   7 NW12G20   30.05F
6HR MIN TEMP:  92; 6HR MAX TEMP: 101;

WINDOW ROCK    SUNNY     93  20   7 MISG      30.18F
6HR MIN TEMP:  88; 6HR MAX TEMP:  96;

SHOW LOW       PTSUNNY   88  32  13 S16       30.17S
$$

AZZ540-542>544-546-548-250100-
GREATER PHOENIX AREA

CITY           SKY/WX    TMP DP  RH WIND       PRES   REMARKS
PHOENIX        MOSUNNY  115  37   7 W13       29.64F HX 107
6HR MIN TEMP: 103; 6HR MAX TEMP: 116;

BUCKEYE          N/A    111  41   9 SW10G18   29.65F HX 105
GLENDALE       MOSUNNY  117  36   6 S14       29.66F HX 108
LUKE AFB       SUNNY    115  37   7 SW14      29.64F HX 107
6HR MIN TEMP: 103; 6HR MAX TEMP: 115;

DEER VALLEY    SUNNY    112  40   9 W13G21    29.67F HX 106
6HR MIN TEMP: 101; 6HR MAX TEMP: 113;

SCOTTSDALE     SUNNY    113  37   7 W10       29.69F HX 106
6HR MIN TEMP: 101; 6HR MAX TEMP: 114;

MESA-FALCON    MOSUNNY  113  43   9 SW10G17   29.68F HX 107
MESA-GATEWAY   MOSUNNY  113  45  10 NW12G21   29.68F HX 108
CHANDLER       SUNNY    115  37   7 W12       29.66F HX 107
$$

AZZ539-553-250100-
SOUTHWEST MARICOPA COUNTY AND PINAL COUNTY

CITY           SKY/WX    TMP DP  RH WIND       PRES   REMARKS
CASA GRANDE      N/A    N/A N/A N/A MISG        N/A
GILA BEND      SUNNY    116  32   5 SW13G18   29.64F HX 107
6HR MIN TEMP: 103; 6HR MAX TEMP: 117;

$$

AZZ503-504-507>509-250100-
SOUTHEAST ARIZONA

CITY           SKY/WX    TMP DP  RH WIND       PRES   REMARKS
TUCSON         SUNNY    111  33   7 NW7G21    29.80F HX 103
6HR MIN TEMP: 103; 6HR MAX TEMP: 113;

DAVIS-MONTHAN  SUNNY    110  32   7 N18       29.79F HX 103
6HR MIN TEMP: 101; 6HR MAX TEMP: 111;

RYAN FIELD     SUNNY    111  32   6 NW9       29.78F HX 103
NOGALES        SUNNY    105  30   7 W9        29.92F
6HR MIN TEMP: 102; 6HR MAX TEMP: 109;

SIERRA VISTA   PTSUNNY  101  32   9 W9        30.00F
6HR MIN TEMP:  95; 6HR MAX TEMP: 103;

DOUGLAS        MOSUNNY   98  41  14 E17       29.93S
6HR MIN TEMP:  98; 6HR MAX TEMP: 107;

SAFFORD        PTSUNNY  109  33   7 CALM      29.81F HX 102
6HR MIN TEMP:  98; 6HR MAX TEMP: 109;

$$

AZZ532-250100-
SOUTHWEST ARIZONA

CITY           SKY/WX    TMP DP  RH WIND       PRES   REMARKS
YUMA           SUNNY    115  54  13 SW13G24   29.61F HX 113
6HR MIN TEMP:  98; 6HR MAX TEMP: 117;

$$

CAZ041-043-047-048-061-525>527-560>570-250100-
SOUTHERN CALIFORNIA

CITY           SKY/WX    TMP DP  RH WIND       PRES   REMARKS
DOWNTOWN L.A.  SUNNY     75  60  59 W8        29.85F
6HR MIN TEMP:  68; 6HR MAX TEMP:  77; 6HR PCP: TRACE;

L.A. AIRPORT   MOSUNNY   69  61  75 W13       29.86F
6HR MIN TEMP:  65; 6HR MAX TEMP:  71;

SAN DIEGO      MOSUNNY   72  62  71 NW15      29.87F
6HR MIN TEMP:  70; 6HR MAX TEMP:  75;

BURBANK        SUNNY     81  59  47 S9        29.84F
6HR MIN TEMP:  74; 6HR MAX TEMP:  83;

ONTARIO        MOSUNNY   88  60  38 W12       29.84F
6HR MIN TEMP:  80; 6HR MAX TEMP:  92;

RIVERSIDE      SUNNY     89  61  38 W12G18    29.84S
6HR MIN TEMP:  80; 6HR MAX TEMP:  92;

PALM SPRINGS   SUNNY    116  48  10 NW17G28   29.64F HX 111
6HR MIN TEMP: 104; 6HR MAX TEMP: 122;

EL CENTRO NAS  MOSUNNY  117  35   6 SE5       29.60F HX 108
6HR MIN TEMP:  99; 6HR MAX TEMP: 117;

IMPERIAL       CLOUDY   118  49  10 W5        29.58F HX 113
6HR MIN TEMP: 100; 6HR MAX TEMP: 118;

BLYTHE         PTSUNNY  119  34   5 S12       29.60F HX 110
6HR MIN TEMP: 105; 6HR MAX TEMP: 120;

NEEDLES        CLOUDY   121  16   2 VRB3      29.62F HX 108
6HR MIN TEMP: 111; 6HR MAX TEMP: 123;

$$

NVZ020-UTZ003-250100-
SOUTHERN NEVADA-UTAH

CITY           SKY/WX    TMP DP  RH WIND       PRES   REMARKS
LAS VEGAS      MOSUNNY  113   8   2 CALM      29.78F HX 103
6HR MIN TEMP: 104; 6HR MAX TEMP: 113;

SALT LAKE CITY SUNNY     88  26  10 N12G18    30.13F
6HR MIN TEMP:  82; 6HR MAX TEMP:  89;

$$

NMZ009-TXZ055-250100-
NEW MEXICO-WEST TEXAS

CITY           SKY/WX    TMP DP  RH WIND       PRES   REMARKS
ALBUQUERQUE    CLOUDY    89  49  25 S20G25    30.09F
6HR MIN TEMP:  80; 6HR MAX TEMP:  90;

EL PASO        MOSUNNY   94  53  25 E14G24    30.02S
6HR MIN TEMP:  90; 6HR MAX TEMP:  94;

$$


........................KEY........................
SKY/WX - SKY CONDITION/WEATHER
TMP    - TEMPERATURE IN FAHRENHEIT
DP     - DEW POINT IN FAHRENHEIT
RH     - RELATIVE HUMIDITY IN PERCENT
WIND   - DIRECTION AND SPEED IN MILES PER HOUR (MPH)
VRB    - VARIABLE WIND DIRECTION
PRES   - MEAN SEA LEVEL PRESSURE IN INCHES OF MERCURY
         F - FALLING PRESSURE   R - RISING PRESSURE
         S - STEADY PRESSURE
VSB    - VISIBILITY IN MILES
HX     - HEAT INDEX IN FAHRENHEIT
WCI    - WIND CHILL INDEX IN FAHRENHEIT
TC     - TEMPERATURE IN CELSIUS WHICH IS ALSO KNOWN AS
         TEMPERATURE IN CENTIGRADE
AFB    - AIR FORCE BASE
         LUKE AFB IS LUKE AIR FORCE BASE
         DAVIS-MONTHAN IS DAVIS-MONTHAN AIR FORCE BASE
NAS    - NAVAL AIR STATION
         EL CENTRO NAS IS EL CENTRO NAVAL AIR STATION
N/A    - NOT AVAILABLE





USA.gov is the U.S. government's official web portal to all federal, state and local government web resources and services.